CW9825 Weather Reports


time (UTC)temp
C
wind
direction
speed
KPH
gust
KPH
rain 1hr
cm
rain 24hr
cm
rain mn
cm
humidity
%
barometer
mb
20260901150003 22 285 0.0 9.7 0.00 0.00 0.00 65 1015.1
20260901145500 22 258 1.6 8.0 0.00 0.00 0.00 64 1015.1
20260901145059 21 293 3.2 9.7 0.00 0.00 0.00 65 1015.2
20260901144601 21 254 3.2 11.3 0.00 0.00 0.00 66 1015.2
20260901144101 21 287 0.0 11.3 0.00 0.00 0.00 67 1015.1
20260901143556 20 266 3.2 8.0 0.00 0.00 0.00 67 1015.1
20260901143055 20 229 3.2 9.7 0.00 0.00 0.00 70 1015.2
20260901142554 19 249 1.6 6.4 0.00 0.00 0.00 72 1015.3
20260901142052 18 240 1.6 11.3 0.00 0.00 0.00 73 1015.3
20260901141551 18 291 3.2 11.3 0.00 0.00 0.00 75 1015.2
20260901141050 17 296 1.6 9.7 0.00 0.00 0.00 75 1015.3
20260901140548 17 269 3.2 9.7 0.00 0.00 0.00 76 1015.3
20260901140058 17 251 0.0 4.8 0.00 0.00 0.00 78 1015.2
20260901135549 16 251 1.6 8.0 0.00 0.00 0.00 77 1015.3
20260901135049 16 261 1.6 8.0 0.00 0.00 0.00 78 1015.3
20260901134559 16 243 1.6 8.0 0.00 0.00 0.00 79 1015.4
20260901134048 16 234 3.2 9.7 0.00 0.00 0.00 79 1015.3
20260901133547 15 213 4.8 11.3 0.00 0.00 0.00 79 1015.4
20260901133100 15 190 4.8 12.9 0.00 0.00 0.00 79 1015.4
20260901132550 15 206 4.8 11.3 0.00 0.00 0.00 80 1015.3
20260901132047 15 219 1.6 11.3 0.00 0.00 0.00 81 1015.2
20260901131551 15 200 3.2 8.0 0.00 0.00 0.00 82 1015.2
20260901131047 15 207 3.2 9.7 0.00 0.00 0.00 82 1015.1
20260901130544 15 203 1.6 9.7 0.00 0.00 0.00 82 1015.1
20260901130044 15 191 1.6 9.7 0.00 0.00 0.00 81 1015.1
20260901125543 15 211 3.2 9.7 0.00 0.00 0.00 80 1015.0
20260901125043 15 167 1.6 9.7 0.00 0.00 0.00 80 1015.0
20260901124542 15 197 3.2 11.3 0.00 0.00 0.00 80 1014.9
20260901124041 15 185 6.4 11.3 0.00 0.00 0.00 81 1014.7
20260901123539 15 207 1.6 3.2 0.00 0.00 0.00 81 1014.7
20260901123041 15 207 0.0 4.8 0.00 0.00 0.00 80 1014.6
20260901122538 15 209 1.6 4.8 0.00 0.00 0.00 79 1014.5
20260901122037 15 229 0.0 3.2 0.00 0.00 0.00 79 1014.3
20260901121545 15 229 0.0 4.8 0.00 0.00 0.00 79 1014.3
20260901121037 15 230 1.6 4.8 0.00 0.00 0.00 79 1014.3
20260901120536 15 259 1.6 4.8 0.00 0.00 0.00 79 1014.2
20260901120038 15 277 0.0 4.8 0.00 0.00 0.00 79 1014.2
20260901115537 15 277 1.6 6.4 0.00 0.00 0.00 79 1014.1
20260901115034 15 277 3.2 6.4 0.00 0.00 0.00 79 1014.1
20260901114534 15 271 1.6 6.4 0.00 0.00 0.00 78 1014.1
20260901114033 15 269 0.0 4.8 0.00 0.00 0.00 78 1014.1
20260901113533 15 251 0.0 4.8 0.00 0.00 0.00 78 1014.1
20260901113033 15 259 1.6 9.7 0.00 0.00 0.00 78 1014.1
20260901112531 15 261 3.2 9.7 0.00 0.00 0.00 78 1013.9
20260901112031 15 285 4.8 9.7 0.00 0.00 0.00 78 1013.7
20260901111531 15 274 4.8 9.7 0.00 0.00 0.00 79 1013.7
20260901111033 15 276 4.8 9.7 0.00 0.00 0.00 79 1013.8
20260901110529 15 264 3.2 6.4 0.00 0.00 0.00 79 1013.6
20260901110030 15 263 3.2 6.4 0.00 0.00 0.00 79 1013.9
20260901105530 15 269 0.0 6.4 0.00 0.00 0.00 79 1013.8
20260901105128 15 269 0.0 6.4 0.00 0.00 0.00 79 1013.7
20260901104537 15 254 3.2 6.4 0.00 0.00 0.00 79 1013.5
20260901104030 15 250 0.0 4.8 0.00 0.00 0.00 79 1013.5
20260901103528 15 250 0.0 3.2 0.00 0.00 0.00 79 1013.5
20260901103033 15 250 0.0 3.2 0.00 0.00 0.00 79 1013.5
20260901102527 15 250 0.0 1.6 0.00 0.00 0.00 79 1013.6
20260901102026 15 250 0.0 1.6 0.00 0.00 0.00 78 1013.4
20260901101525 15 250 0.0 3.2 0.00 0.00 0.00 78 1013.5
20260901101025 15 250 0.0 3.2 0.00 0.00 0.00 78 1013.4
20260901100524 15 250 1.6 3.2 0.00 0.00 0.00 77 1013.3
20260901100023 15 250 0.0 1.6 0.00 0.00 0.00 77 1013.3
20260901095522 15 250 0.0 1.6 0.00 0.00 0.00 77 1013.3
20260901095022 15 250 0.0 3.2 0.00 0.00 0.00 76 1013.3
20260901094523 15 250 0.0 3.2 0.00 0.00 0.00 76 1013.4
20260901094021 15 250 0.0 0.0 0.00 0.00 0.00 76 1013.3
20260901093520 16 250 0.0 0.0 0.00 0.00 0.00 75 1013.2
20260901093020 16 250 0.0 0.0 0.00 0.00 0.00 75 1013.2
20260901092519 16 250 0.0 0.0 0.00 0.00 0.00 74 1013.2
20260901092018 16 250 0.0 0.0 0.00 0.00 0.00 74 1013.1
20260901091518 16 250 0.0 1.6 0.00 0.00 0.00 73 1013.2
20260901091017 16 250 0.0 4.8 0.00 0.00 0.00 73 1013.2
20260901090516 16 250 0.0 4.8 0.00 0.00 0.00 73 1013.2
20260901090025 16 249 0.0 0.0 0.00 0.00 0.00 73 1013.2
20260901085515 16 249 0.0 0.0 0.00 0.03 0.00 72 1013.2
20260901085014 16 249 0.0 0.0 0.00 0.03 0.00 72 1013.2
20260901084514 16 249 0.0 0.0 0.00 0.03 0.00 72 1013.2
20260901084013 17 249 0.0 3.2 0.00 0.03 0.00 71 1013.1
20260901083513 17 249 0.0 3.2 0.00 0.03 0.00 71 1013.0
20260901083013 17 259 0.0 4.8 0.00 0.03 0.00 71 1013.1
20260901082512 17 259 1.6 4.8 0.00 0.03 0.00 71 1013.0
20260901082011 17 259 1.6 4.8 0.00 0.03 0.00 70 1013.0
20260901081511 17 259 0.0 4.8 0.00 0.03 0.00 70 1013.0
20260901081010 17 259 0.0 4.8 0.00 0.03 0.00 70 1013.0
20260901080510 17 258 0.0 6.4 0.00 0.03 0.00 69 1013.0
20260901080014 17 257 1.6 9.7 0.00 0.03 0.00 69 1013.1
20260901075508 17 277 4.8 9.7 0.00 0.03 0.00 68 1013.1
20260901075007 17 281 4.8 9.7 0.00 0.03 0.00 68 1013.2
20260901074507 18 248 1.6 6.4 0.00 0.03 0.00 68 1013.1
20260901074006 18 246 0.0 4.8 0.00 0.03 0.00 67 1013.1
20260901073505 18 247 0.0 6.4 0.00 0.03 0.00 67 1013.1
20260901073016 18 260 1.6 9.7 0.00 0.03 0.00 67 1013.1
20260901072504 18 237 3.2 11.3 0.00 0.03 0.00 66 1013.2
20260901072004 18 273 3.2 11.3 0.00 0.03 0.00 66 1013.3
20260901071502 18 277 3.2 6.4 0.00 0.03 0.00 66 1013.3
20260901071003 18 275 3.2 11.3 0.00 0.03 0.00 65 1013.3
20260901070501 18 248 3.2 11.3 0.00 0.03 0.00 65 1013.3
20260901070001 18 277 4.8 11.3 0.00 0.03 0.00 65 1013.4
20260901065501 19 253 4.8 12.9 0.00 0.03 0.00 65 1013.3
20260901065001 19 264 4.8 12.9 0.00 0.03 0.00 64 1013.4
20260901064502 19 238 6.4 11.3 0.00 0.03 0.00 64 1013.4
20260901064002 19 275 4.8 11.3 0.00 0.03 0.00 64 1013.4
20260901063501 20 263 4.8 12.9 0.00 0.03 0.00 64 1013.3
20260901063132 20 279 3.2 14.5 0.00 0.03 0.00 64 1013.4
20260901062559 20 302 6.4 14.5 0.00 0.03 0.00 64 1013.3
20260901062059 20 290 4.8 16.1 0.00 0.03 0.00 64 1013.3
20260901061602 20 294 8.0 17.7 0.00 0.03 0.00 64 1013.2
20260901061059 20 278 8.0 17.7 0.00 0.03 0.00 64 1013.1
20260901060602 20 267 8.0 17.7 0.00 0.03 0.00 65 1013.1
20260901060056 20 273 8.0 17.7 0.00 0.03 0.00 65 1013.1
20260901055555 20 265 6.4 16.1 0.00 0.76 0.00 67 1013.0
20260901055054 19 220 6.4 16.1 0.00 0.76 0.00 69 1013.0
20260901054553 19 294 8.0 12.9 0.00 0.76 0.00 72 1013.0
20260901054053 18 286 4.8 14.5 0.00 0.76 0.00 74 1013.0
20260901053553 18 277 4.8 11.3 0.00 0.76 0.00 75 1012.9
20260901053057 18 268 4.8 9.7 0.00 0.76 0.00 76 1012.9
20260901052550 18 225 0.0 8.0 0.00 0.76 0.00 75 1012.4
20260901052049 18 211 3.2 8.0 0.00 0.76 0.00 75 1012.2
20260901051553 19 205 3.2 8.0 0.00 0.76 0.00 74 1012.2
20260901051048 19 197 3.2 8.0 0.00 0.76 0.00 73 1012.2
20260901050546 19 209 3.2 8.0 0.00 0.76 0.00 73 1012.1
20260901050045 19 199 3.2 8.0 0.00 0.76 0.00 72 1012.1
20260901045543 19 228 3.2 8.0 0.00 0.76 0.76 71 1012.0
20260901045044 20 234 3.2 9.7 0.00 0.76 0.76 71 1012.1
20260901044544 20 192 4.8 9.7 0.00 0.76 0.76 70 1012.1
20260901044044 20 213 4.8 11.3 0.00 0.76 0.76 70 1012.1
20260901043544 20 212 4.8 12.9 0.00 0.76 0.76 69 1012.0
20260901043046 20 221 4.8 12.9 0.00 0.76 0.76 68 1012.0
20260901042544 20 206 4.8 9.7 0.00 0.76 0.76 67 1012.0
20260901042043 21 211 4.8 9.7 0.00 0.76 0.76 67 1011.9
20260901041543 21 192 4.8 9.7 0.00 0.76 0.76 66 1011.9
20260901041043 21 184 3.2 9.7 0.00 0.76 0.76 66 1011.9
20260901040543 21 244 4.8 9.7 0.00 0.76 0.76 66 1011.9
20260901040042 21 190 1.6 9.7 0.00 0.76 0.76 65 1011.9
20260901035542 21 223 3.2 11.3 0.00 0.76 0.76 65 1011.9
20260901035043 21 217 4.8 11.3 0.00 0.76 0.76 65 1011.8
20260901034548 21 197 6.4 9.7 0.00 0.76 0.76 64 1011.9
20260901034041 21 194 4.8 9.7 0.00 0.76 0.76 63 1011.9
20260901033541 21 185 4.8 9.7 0.00 0.76 0.76 63 1011.8
20260901033044 21 219 3.2 9.7 0.00 0.76 0.76 62 1012.3
20260901032541 22 202 4.8 11.3 0.00 0.76 0.76 61 1011.9
20260901032040 22 202 4.8 12.9 0.00 0.76 0.76 61 1011.8
20260901031547 22 189 6.4 12.9 0.00 0.76 0.76 60 1011.9
20260901031041 22 197 4.8 11.3 0.00 0.76 0.76 59 1011.9
20260901030542 22 191 4.8 9.7 0.00 0.76 0.76 59 1011.8
20260901030041 22 194 4.8 9.7 0.00 0.76 0.76 58 1011.8
20260901025540 23 225 4.8 11.3 0.00 0.76 0.76 57 1011.9
20260901025040 23 215 1.6 11.3 0.00 0.76 0.76 57 1011.9
20260901024540 23 221 1.6 9.7 0.00 0.76 0.76 56 1011.9
20260901024044 23 230 4.8 9.7 0.00 0.76 0.76 55 1011.9
20260901023539 23 236 3.2 8.0 0.00 0.76 0.76 55 1011.8
20260901023041 23 229 0.0 4.8 0.00 0.76 0.76 54 1011.8
20260901022539 23 257 0.0 9.7 0.00 0.76 0.76 53 1011.7
20260901022039 23 190 4.8 14.5 0.00 0.76 0.76 52 1011.5
20260901021550 23 244 4.8 14.5 0.00 0.76 0.76 51 1011.5
20260901021042 23 197 4.8 11.3 0.00 0.76 0.76 49 1011.4
20260901020539 23 188 4.8 11.3 0.00 0.76 0.76 48 1011.3
20260901020038 24 200 4.8 11.3 0.00 0.76 0.76 47 1011.2
20260901015539 24 197 6.4 12.9 0.00 0.76 0.76 46 1011.1
20260901015038 25 177 6.4 12.9 0.00 0.76 0.76 46 1011.1
20260901014539 25 205 4.8 9.7 0.00 0.76 0.76 45 1011.0
20260901014037 25 191 4.8 9.7 0.00 0.76 0.76 44 1010.9
20260901013537 25 199 3.2 8.0 0.00 0.76 0.76 43 1010.8
20260901013055 26 223 3.2 11.3 0.00 0.76 0.76 43 1010.9
20260901012536 26 190 3.2 11.3 0.00 0.76 0.76 42 1010.8
20260901012040 26 216 6.4 12.9 0.00 0.76 0.76 42 1010.7
20260901011537 26 229 3.2 12.9 0.00 0.76 0.76 41 1010.7
20260901011036 26 213 4.8 11.3 0.00 0.76 0.76 41 1010.6
20260901010536 26 213 4.8 12.9 0.00 0.76 0.76 40 1010.7
20260901010047 27 211 3.2 11.3 0.00 0.76 0.76 39 1010.7
20260901005536 27 207 4.8 14.5 0.00 0.76 0.76 39 1010.6
20260901005035 27 222 3.2 14.5 0.00 0.76 0.76 39 1010.5
20260901004538 27 194 3.2 14.5 0.00 0.76 0.76 38 1010.6
20260901004035 27 199 4.8 16.1 0.00 0.76 0.76 38 1010.6
20260901003539 27 213 6.4 16.1 0.00 0.76 0.76 37 1010.6
20260901003035 27 216 4.8 20.9 0.00 0.76 0.76 37 1010.6
20260901002535 28 256 6.4 27.4 0.00 0.76 0.76 37 1010.5
20260901002035 28 184 8.0 27.4 0.00 0.76 0.76 36 1010.4
20260901001536 28 185 4.8 19.3 0.00 0.76 0.76 36 1010.4
20260901001034 28 217 6.4 19.3 0.00 0.76 0.76 36 1010.3
20260901000534 28 335 8.0 17.7 0.00 0.76 0.76 35 1010.3
20260901000034 28 227 6.4 20.9 0.00 0.76 0.76 35 1010.4
20260831235534 28 213 8.0 27.4 0.00 0.76 0.76 35 1010.4
20260831235035 28 198 9.7 27.4 0.00 0.76 0.76 35 1010.3
20260831234534 28 208 8.0 22.5 0.00 0.76 0.76 35 1010.3
20260831234035 28 329 9.7 22.5 0.00 0.76 0.76 34 1010.3
20260831233533 28 346 6.4 24.1 0.00 0.76 0.76 35 1010.3
20260831233032 28 209 4.8 17.7 0.00 0.76 0.76 35 1010.3
20260831232534 28 283 6.4 24.1 0.00 0.76 0.76 34 1010.4
20260831232034 29 213 9.7 30.6 0.00 0.76 0.76 33 1010.4
20260831231533 29 246 11.3 30.6 0.00 0.76 0.76 33 1010.5
20260831231034 29 211 4.8 24.1 0.00 0.76 0.76 34 1010.5
20260831230533 29 238 11.3 24.1 0.00 0.76 0.76 33 1010.5
20260831230036 29 284 9.7 20.9 0.00 0.76 0.76 34 1010.4
20260831225533 29 232 6.4 24.1 0.00 0.76 0.76 33 1010.4
20260831225035 29 236 8.0 29.0 0.00 0.76 0.76 33 1010.4
20260831224532 29 349 14.5 32.2 0.00 0.76 0.76 32 1010.5
20260831224033 29 193 6.4 29.0 0.00 0.76 0.76 33 1010.4
20260831223535 29 314 6.4 29.0 0.00 0.76 0.76 33 1010.4
20260831223038 29 144 11.3 29.0 0.00 0.76 0.76 32 1010.3
20260831222531 29 192 8.0 24.1 0.00 0.76 0.76 34 1010.2
20260831222031 29 26 4.8 24.1 0.00 0.76 0.76 34 1010.1
20260831221532 29 198 8.0 22.5 0.00 0.76 0.76 35 1010.1
20260831221032 29 282 11.3 33.8 0.00 0.76 0.76 33 1010.0
20260831220530 29 207 8.0 35.4 0.00 0.76 0.76 34 1010.0
20260831220030 30 223 11.3 27.4 0.00 0.76 0.76 34 1010.0
20260831215532 30 200 8.0 19.3 0.00 0.76 0.76 34 1010.1
20260831215030 30 190 6.4 19.3 0.00 0.76 0.76 34 1010.0
20260831214532 29 229 8.0 22.5 0.00 0.76 0.76 34 1010.0
20260831214029 29 261 4.8 19.3 0.00 0.76 0.76 34 1010.1
20260831213529 30 183 4.8 27.4 0.00 0.76 0.76 34 1010.2
20260831213038 30 196 11.3 27.4 0.00 0.76 0.76 33 1010.2
20260831212529 30 238 8.0 24.1 0.00 0.76 0.76 35 1010.1
20260831212028 30 201 6.4 22.5 0.00 0.76 0.76 33 1010.2
20260831211529 29 229 6.4 24.1 0.00 0.76 0.76 33 1010.2
20260831211031 29 63 11.3 25.7 0.00 0.76 0.76 33 1010.2
20260831210531 29 252 12.9 25.7 0.00 0.76 0.76 33 1010.3
20260831210027 29 260 9.7 24.1 0.00 0.76 0.76 33 1010.4
20260831205528 29 178 8.0 24.1 0.00 0.76 0.76 33 1010.4
20260831205028 29 200 8.0 22.5 0.00 0.76 0.76 32 1010.4
20260831204530 29 250 6.4 22.5 0.00 0.76 0.76 32 1010.3
20260831204027 30 271 9.7 19.3 0.00 0.76 0.76 31 1010.5
20260831203527 30 172 6.4 24.1 0.00 0.76 0.76 33 1010.6
20260831203026 30 323 11.3 29.0 0.00 0.76 0.76 32 1010.5
20260831202525 30 269 9.7 29.0 0.00 0.76 0.76 32 1010.6
20260831202028 30 254 4.8 38.6 0.00 0.76 0.76 33 1010.7
20260831201534 30 269 8.0 38.6 0.00 0.76 0.76 32 1010.7
20260831201028 30 165 11.3 22.5 0.00 0.76 0.76 30 1010.7
20260831200524 30 323 6.4 22.5 0.00 0.76 0.76 33 1010.8
20260831200024 30 312 8.0 22.5 0.00 0.76 0.76 32 1010.8
20260831195525 30 188 12.9 24.1 0.00 0.76 0.76 31 1010.9
20260831195027 30 355 6.4 24.1 0.00 0.76 0.76 33 1011.0
20260831194538 29 273 6.4 27.4 0.00 0.76 0.76 33 1010.9
20260831194024 29 277 11.3 27.4 0.00 0.76 0.76 32 1011.0
20260831193523 30 195 9.7 22.5 0.00 0.76 0.76 31 1011.1
20260831193024 29 267 4.8 25.7 0.00 0.76 0.76 34 1011.2
20260831192522 29 202 8.0 25.7 0.00 0.76 0.76 33 1011.2
20260831192023 29 202 8.0 24.1 0.00 0.76 0.76 35 1011.3
20260831191520 29 271 9.7 24.1 0.00 0.76 0.76 35 1011.1
20260831191022 29 234 6.4 19.3 0.00 0.76 0.76 35 1011.3
20260831190518 28 248 8.0 22.5 0.00 0.76 0.76 36 1011.4
20260831190019 28 214 8.0 22.5 0.00 0.76 0.76 39 1011.4
20260831185517 28 188 9.7 17.7 0.00 0.76 0.76 39 1011.5
20260831185016 28 238 8.0 17.7 0.00 0.76 0.76 41 1011.5
20260831184516 28 181 3.2 12.9 0.00 0.76 0.76 44 1011.6
20260831184013 28 202 3.2 12.9 0.00 0.76 0.76 44 1011.5
20260831183513 28 185 4.8 12.9 0.00 0.76 0.76 44 1011.7
20260831183012 28 219 4.8 14.5 0.00 0.76 0.76 45 1011.7
20260831182511 27 276 6.4 16.1 0.00 0.76 0.76 45 1011.7
20260831182010 27 277 8.0 16.1 0.00 0.76 0.76 47 1011.7
20260831181510 27 213 4.8 12.9 0.00 0.76 0.76 47 1011.8
20260831181009 27 206 4.8 14.5 0.00 0.76 0.76 46 1011.8
20260831180507 27 204 3.2 17.7 0.00 0.76 0.76 49 1012.0
20260831180006 27 279 6.4 17.7 0.00 0.76 0.76 48 1012.1
20260831175505 27 246 9.7 17.7 0.00 0.76 0.76 52 1012.1
20260831175003 26 281 3.2 14.5 0.00 0.76 0.76 49 1012.2
20260831174502 26 266 4.8 12.9 0.00 0.76 0.76 54 1012.2
20260831174004 26 245 1.6 16.1 0.00 0.76 0.76 54 1012.2
20260831173501 26 313 9.7 16.1 0.00 0.76 0.76 54 1012.2
20260831173100 26 223 4.8 17.7 0.00 0.76 0.76 55 1012.3
20260831172558 26 297 8.0 17.7 0.00 0.76 0.76 56 1012.4
20260831172057 25 299 4.8 12.9 0.00 0.76 0.76 56 1012.4
20260831171559 25 256 1.6 14.5 0.00 0.76 0.76 58 1012.5
20260831171055 25 261 3.2 14.5 0.00 0.76 0.76 60 1012.4
20260831170554 25 300 1.6 11.3 0.00 0.76 0.76 59 1012.4
20260831170052 25 211 3.2 16.1 0.00 0.76 0.76 58 1012.4
20260831165552 25 285 6.4 14.5 0.00 0.76 0.76 58 1012.3
20260831165051 25 230 4.8 14.5 0.00 0.76 0.76 58 1012.2
20260831164550 25 274 3.2 12.9 0.00 0.76 0.76 59 1012.3
20260831164048 25 243 3.2 9.7 0.00 0.76 0.76 59 1012.3
20260831163547 25 297 3.2 12.9 0.00 0.76 0.76 61 1012.3
20260831163046 25 276 3.2 12.9 0.00 0.76 0.76 60 1012.2
20260831162545 24 239 4.8 12.9 0.00 0.76 0.76 60 1012.3
20260831162048 24 241 4.8 16.1 0.00 0.76 0.76 59 1012.3
20260831161548 24 186 6.4 16.1 0.00 0.76 0.76 62 1012.3
20260831161042 24 254 1.6 6.4 0.00 0.76 0.76 63 1012.1
20260831160539 23 166 0.0 6.4 0.00 0.76 0.76 69 1012.2
20260831160039 23 220 1.6 9.7 0.00 0.76 0.76 63 1012.4
20260831155537 23 225 3.2 9.7 0.00 0.76 0.76 65 1012.5
20260831155036 23 237 0.0 8.0 0.00 0.76 0.76 66 1012.5
20260831154540 22 229 3.2 9.7 0.00 0.76 0.76 67 1012.5
20260831154033 22 285 4.8 9.7 0.00 0.76 0.76 70 1012.5
20260831153535 22 239 1.6 8.0 0.00 0.76 0.76 72 1012.4
20260831153036 22 223 3.2 8.0 0.00 0.76 0.76 72 1012.4
20260831152528 22 267 3.2 8.0 0.00 0.76 0.76 71 1012.4
20260831152027 21 279 1.6 12.9 0.00 0.76 0.76 73 1012.2
20260831151526 21 286 3.2 12.9 0.00 0.76 0.76 73 1012.2
20260831151025 21 228 4.8 12.9 0.00 0.76 0.76 73 1012.3
20260831150523 21 221 3.2 9.7 0.00 0.76 0.76 75 1012.3